TIME,DELAY(SENSOR),PRES,T(CTD),SAL,OXYGEN,RAWTEMP,T(OPTODE),TCPHASE,TURBIDITY,TURBIDITY_GAIN,FLUOR,BETA,CDOM,ED411.5,ED443.8,ED489.6,PAR,COMP,TILT,TILTY(TILT),CHECK
1341316713,6470,225.9700012207031200,5.2705998420715330,34.9966011047363300,358.4849853515625000,643.8901977539062000,5.2484679222106930,32.3812599182128900,10,3,50,114,62,2147639597,2147394637,2147288310,2148320525,3067,0,-4,61205
1341316775,6467,221.9499969482422000,5.2783999443054200,34.9972991943359400,358.5404052734375000,643.6013793945312000,5.2578349113464355,32.3743209838867200,18,3,49,120,62,2147634417,2147395876,2147290317,2148318166,2830,0,-4,57804
1341316837,6468,217.8500061035156200,5.2809000015258790,34.9978981018066400,358.5411987304687500,643.4520263671875000,5.2626819610595700,32.3715286254882800,10,3,50,126,62,2147633960,2147394024,2147290257,2148321471,2594,0,-4,28255
1341316902,6468,213.5700073242187500,5.2912001609802250,34.9982986450195300,358.5882873535156000,643.1898803710938000,5.2711811065673830,32.3651390075683600,13,3,50,115,62,2147635752,2147396690,2147292434,2148322289,2416,0,-4,32469
1341316963,6468,209.5500030517578000,5.2946000099182130,34.9986000061035160,358.7789001464844000,643.0632934570312000,5.2752881050109860,32.3569717407226560,16,3,50,117,62,2147634930,2147397407,2147291771,2148321421,2208,0,-4,50046
1341317024,6467,205.5000000000000000,5.3007998466491700,34.9994010925293000,358.6366882324219000,642.8687133789062000,5.2815990447998050,32.3579902648925800,16,3,50,124,62,2147635062,2147391382,2147292246,2148319679,2028,0,-4,31064
1341317085,6467,201.5200042724609400,5.3066000938415530,34.9995994567871100,358.7755126953125000,642.7028198242188000,5.2869801521301270,32.3505287170410160,16,3,48,119,62,2147638358,2147396972,2147295154,2148320745,1876,0,-4,37792
1341317146,6467,197.5800018310547000,5.3081002235412600,34.9995994567871100,358.8515930175781000,642.6619262695312000,5.2883048057556150,32.3472709655761700,61,3,48,119,63,2147634953,2147397915,2147297732,2148323610,1695,0,-4,28457
1341317207,6466,193.6399993896484400,5.3136000633239750,34.9999008178710940,358.9077148437500000,642.4923095703125000,5.2938017845153810,32.3424797058105500,16,3,49,184,62,2147630472,2147397375,2147300680,2148322010,1486,0,-4,11816
1341317268,6468,189.6699981689453000,5.3144001960754395,35.0000000000000000,359.0542907714844000,642.4431152343750000,5.2953968048095700,32.3370780944824200,16,3,50,154,62,2147637329,2147396973,2147301988,2148321156,1323,0,-4,46056
1341317331,6469,185.6199951171875000,5.3200001716613770,34.9996986389160160,359.0986938476562500,642.2910156250000000,5.3003311157226560,32.3329505920410160,24,3,50,312,62,2147635963,2147399743,2147305229,2148324118,1098,0,-4,8511
1341317392,6468,181.7700042724609400,5.3243999481201170,35.0001983642578100,358.9372863769531000,642.1422729492188000,5.3051490783691410,32.3355903625488300,16,3,50,121,62,2147636552,2147395817,2147310148,2148321654,805,0,-4,47764
1341317478,6469,177.0099945068359400,5.3315000534057620,35.0000991821289060,358.9699096679687500,641.9470825195312000,5.3114762306213380,32.3310699462890600,16,3,48,197,61,2147633311,2147396991,2147316625,2148318577,141,0,-4,41885
1341317539,6468,174.6999969482422000,5.3295998573303220,35.0008010864257800,359.0740051269531000,641.9506225585938000,5.3113632202148440,32.3277206420898440,16,3,50,115,62,2147635551,2147397938,2147315501,2148322216,3582,0,-4,53976
1341317602,6468,172.4700012207031200,5.3347001075744630,35.0004997253418000,359.1606140136719000,641.8419189453125000,5.3148860931396480,32.3230705261230500,15,3,50,128,63,2147634737,2147397609,2147311418,2148326797,3400,0,-4,29838
1341317663,6467,170.4199981689453000,5.3358998298645020,35.0004997253418000,359.0899963378906000,641.7802124023438000,5.3168888092041020,32.3239593505859400,16,3,50,137,62,2147635286,2147397740,2147306906,2148323099,3268,0,-4,43643
1341317750,6467,166.8899993896484400,5.3365998268127440,35.0008010864257800,359.1614990234375000,641.7844238281250000,5.3167529106140140,32.3217582702636700,16,3,50,130,62,2147635236,2147399350,2147302358,2148321814,3114,0,-4,59947
1341317811,6470,163.4199981689453000,5.3434000015258790,35.0012016296386700,359.1257019042969000,641.5811767578125000,5.3233380317687990,32.3194618225097660,16,3,49,142,62,2147634024,2147397809,2147312305,2148322792,2865,0,-4,3944
1341317874,6467,159.8399963378906200,5.3512001037597660,35.0015983581543000,359.0896911621094000,641.3436279296875000,5.3310389518737790,32.3162918090820300,16,3,50,120,62,2147635985,2147399409,2147318075,2148324008,2609,0,-4,30346
1341317935,6468,156.3800048828125000,5.3534998893737790,35.0018005371093750,359.0940856933594000,641.2623291015625000,5.3336730003356930,32.3148994445800800,19,3,50,175,61,2147635721,2147404026,2147348571,2148326010,2438,0,-4,23694
1341317998,6469,152.8800048828125000,5.3562002182006840,35.0023994445800800,359.1423034667969000,641.1605834960938000,5.3369669914245605,32.3112182617187500,16,3,49,119,62,2147634765,2147400566,2147333439,2148323935,2294,0,-4,47876
1341318059,6468,149.5000000000000000,5.3607997894287110,35.0018997192382800,359.0538940429687500,641.0358886718750000,5.3410091400146480,32.3121986389160160,16,3,50,122,63,2147637636,2147400731,2147321472,2148321956,2205,0,-4,42328
1341318122,6467,146.0500030517578000,5.3639998435974120,35.0023002624511700,359.0342102050781000,640.9238281250000000,5.3446431159973145,32.3106384277343750,66,3,50,120,62,2147632840,2147398847,2147325179,2148323958,2013,0,-4,13182
1341318183,6466,142.6900024414062500,5.3759999275207520,35.0027999877929700,359.0474853515625000,640.5629882812500000,5.3563351631164550,32.3037796020507800,16,3,50,124,62,2147639428,2147401983,2147330761,2148326418,1852,0,-4,56465
1341318246,6468,139.2400054931640600,5.3790001869201660,35.0027008056640600,358.9039916992187500,640.4727783203125000,5.3592548370361330,32.3069190979003900,19,3,50,122,63,2147637544,2147403427,2147333096,2148326083,1732,0,-4,52760
1341318307,6468,135.9400024414062500,5.3843002319335940,35.0027999877929700,358.9393005371094000,640.3082275390625000,5.3645920753479000,32.3029098510742200,16,3,50,131,62,2147638966,2147399949,2147335904,2148327761,1633,0,-4,15407
1341318370,6467,132.5599975585937500,5.3945999145507810,35.0033988952636700,358.5606079101562500,640.0120239257812000,5.3741860389709470,32.3099098205566400,16,3,50,122,62,2147639414,2147402806,2147338217,2148326157,1403,0,-4,13883
1341318431,6467,129.3000030517578000,5.4028000831604000,35.0035018920898440,358.4679870605469000,639.7332153320312000,5.3832187652587890,32.3077583312988300,14,3,50,136,62,2147635222,2147402029,2147340808,2148324059,1276,0,-4,47724
1341318494,6468,126.0199966430664000,5.4099001884460450,35.0037994384765600,358.2591857910156000,639.5112915039062000,5.3904042243957520,32.3103904724121100,12,3,51,132,62,2147639721,2147406623,2147337174,2148323793,1135,0,-4,37382
1341318555,6468,122.8899993896484400,5.4144001007080080,35.0040016174316400,358.0945129394531000,639.3568115234375000,5.3954110145568850,32.3130607604980500,10,3,50,125,62,2147636676,2147403034,2147338655,2148328630,829,0,-4,46222
1341318618,6468,119.7200012207031200,5.4187998771667480,35.0037002563476560,358.0846862792969000,639.2567749023438000,5.3986468315124510,32.3118209838867200,10,3,50,123,62,2147640484,2147402564,2147333855,2148328355,630,0,-4,60271
1341318679,6467,116.7600021362304700,5.4232001304626465,35.0038986206054700,357.9424133300781000,639.0988769531250000,5.4037628173828125,32.3134384155273440,18,3,51,135,62,2147638518,2147404241,2147331519,2148325476,463,0,-4,20981
1341318742,6467,113.6800003051757800,5.4303002357482910,35.0037002563476560,357.6978149414062500,638.9008178710938000,5.4101772308349610,32.3179702758789060,16,3,50,248,62,2147635606,2147403523,2147332109,2148325284,241,0,-4,62757
1341318803,6469,110.6699981689453100,5.4505000114440920,35.0047988891601560,357.5096130371094000,638.3209228515625000,5.4289569854736330,32.3138999938964840,16,3,50,166,61,2147632575,2147407236,2147352305,2148330043,3503,0,-4,49316
1341318866,6468,107.5400009155273400,5.4675998687744140,35.0051002502441400,357.1654052734375000,637.7811279296875000,5.4464302062988280,32.3153305053710940,15,3,50,129,62,2147639236,2147415099,2147391117,2148334719,3235,0,-4,28736
1341318927,6468,104.5199966430664000,5.4850001335144040,35.0055007934570300,356.9620971679687500,637.2717895507812000,5.4629168510437010,32.3127288818359400,16,3,52,128,64,2147639039,2147424699,2147456182,2148346925,2915,0,-4,53586
1341318990,6466,101.4599990844726600,5.5012998580932620,35.0060997009277340,356.8215026855469000,636.7506713867188000,5.4797821044921875,32.3081016540527340,16,3,51,126,62,2147642683,2147472223,2147741412,2148386180,2714,0,-4,44790
1341319051,6469,98.5999984741211000,5.5219998359680180,35.0060997009277340,356.4862060546875000,636.0814819335938000,5.5014362335205080,32.3073997497558600,16,3,51,133,62,2147645778,2147459862,2147667386,2148375757,2519,0,-4,28612
1341319114,6468,95.7600021362304700,5.5535998344421390,35.0068016052246100,356.4114990234375000,635.1779174804688000,5.5306658744812010,32.2938499450683600,13,3,52,128,62,2147646504,2147489768,2147815117,2148400068,2302,0,-4,16701
1341319175,6468,93.1299972534179700,5.5743999481201170,35.0069007873535160,356.4375000000000000,634.5681152343750000,5.5503859519958500,32.2821693420410160,16,3,53,133,62,2147647076,2147486358,2147764521,2148393677,2064,0,-4,1340
1341319238,6468,90.4800033569336000,5.6196999549865720,35.0056991577148440,356.7290039062500000,633.2047119140625000,5.5944690704345700,32.2487106323242200,19,3,53,144,62,2147653645,2147526038,2147966203,2148426618,2018,0,-4,64405
1341319299,6468,88.0299987792968800,5.6645002365112305,35.0059013366699200,357.2864990234375000,631.6646728515625000,5.6442341804504395,32.2036781311035160,16,3,53,144,62,2147657051,2147563158,2148141984,2148456438,2112,0,-4,42496
1341319362,6467,85.5800018310546900,5.7371997833251950,35.0041007995605500,358.0885009765625000,629.6909790039062000,5.7079830169677730,32.1433181762695300,24,3,54,141,62,2147662714,2147571011,2148191775,2148468054,1958,0,-4,20481
1341319423,6468,83.3099975585937500,5.7943000793457030,35.0032005310058600,359.3399047851562500,627.9677124023438000,5.7636070251464840,32.0730209350585940,16,3,54,149,62,2147667304,2147589851,2148255565,2148480178,1806,0,-4,53872
1341319513,6468,79.2799987792968800,5.8750000000000000,35.0027999877929700,361.9960937500000000,625.1500854492188000,5.8544898033142090,31.9394493103027340,30,3,60,154,62,2147672822,2147599314,2148254422,2148487565,1520,0,-4,53359
1341319574,6469,75.6800003051757800,5.9145998954772950,35.0018005371093750,364.2478027343750000,623.9288940429688000,5.8938579559326170,31.8470497131347660,13,3,62,171,62,2147679414,2147636100,2148421626,2148522148,1465,0,-4,65463
1341319637,6468,72.0500030517578100,5.9679999351501465,35.0004997253418000,366.9678039550781000,622.2672119140625000,5.9473991394042970,31.7333602905273440,15,3,66,185,62,2147689846,2147694784,2148660214,2148571176,1144,0,-4,11385
1341319698,6468,68.6100006103515600,5.9917001724243160,34.9995994567871100,368.5704040527344000,621.5490722656250000,5.9705262184143070,31.6709594726562500,43,3,70,171,62,2147707972,2147762989,2148936072,2148634436,972,0,-4,44555
1341319761,6468,65.1800003051757800,6.0275998115539550,35.0000000000000000,369.3216857910156000,620.4843750000000000,6.0048098564147950,31.6293792724609380,125,3,70,244,62,2147683003,2147610175,2148160205,2148489645,546,0,-4,4985
1341319822,6467,61.9900016784668000,6.0552000999450680,35.0018005371093750,369.8192138671875000,619.5656127929688000,6.0343880653381350,31.5985698699951170,18,3,74,217,62,2147691222,2147598134,2148050733,2148472808,129,0,-4,51642
1341319885,6467,58.7200012207031250,6.0750999450683590,35.0015983581543000,369.5228881835937500,618.9199829101562000,6.0551609992980960,31.5964393615722660,17,3,79,193,62,2147765632,2147888012,2149263355,2148738961,3453,0,-4,61678
1341319946,6468,55.4500007629394500,6.1003999710083010,35.0036010742187500,369.6218872070312500,617.9238281250000000,6.0872139930725100,31.5763397216796880,20,3,86,258,62,2147735510,2147715830,2148421608,2148572621,3133,0,-4,45331
1341320009,6470,52.0200004577636700,6.1663999557495120,35.0019989013671900,369.7380065917969000,616.2429199218750000,6.1412701606750490,31.5441703796386720,24,3,116,210,62,2147874317,2148167011,2150166326,2149002797,2741,0,-4,46596
1341320070,6470,48.6199989318847660,6.2692999839782715,34.9986991882324200,368.7354125976562500,612.8336181640625000,6.2508277893066410,31.5168800354003900,24,3,170,250,64,2148056803,2148603066,2151548657,2149385041,2316,0,-4,47047
1341320133,6469,45.2700004577636700,6.5121998786926270,34.9894981384277340,369.3612060546875000,605.7410278320312000,6.4783802032470700,31.3778305053710940,34,3,268,343,64,2148247035,2148953960,2152360452,2149638637,2633,0,-4,8366
1341320194,6470,42.2099990844726560,6.7280998229980470,34.9897994995117200,371.5065917968750000,598.6525268554688000,6.7053132057189940,31.1934299468994140,52,3,354,500,64,2148171538,2148540383,2150511282,2149169613,2197,0,-4,65352
1341320257,6471,39.0600013732910160,7.0875000953674320,34.9803009033203100,374.0132141113281000,587.3361206054688000,7.0666117668151855,30.9302806854248050,87,3,529,734,65,2149404063,2151147990,2157643473,2151196282,1934,0,-4,22963
1341320318,6469,36.3400001525878900,7.1789999008178710,34.9864006042480500,379.6276855468750000,585.2056274414062000,7.1344990730285645,30.7274608612060550,112,3,582,865,65,2150710234,2153491213,2162730386,2152725170,783,0,-5,50895
1341320381,6471,33.3899993896484400,7.1834001541137695,34.9878997802734400,384.0036926269531000,584.2534790039062000,7.1648240089416500,30.5831108093261720,116,3,607,932,64,2153531889,2158245640,2172250724,2155673508,929,0,-4,61381
1341320442,6472,30.1800003051757800,7.2539000511169430,34.9859008789062500,386.3124084472656000,581.7764282226562000,7.2436809539794920,30.4759807586669920,147,3,606,1107,63,2158922083,2166299336,2185770659,2160066774,270,0,-4,38173
1341320505,6472,26.9799995422363280,7.6201000213623050,34.9762001037597660,389.9324035644531000,571.0537109375000000,7.5843958854675290,30.1993007659912100,170,3,446,1286,66,2160501215,2166426216,2180352986,2158777330,2565,0,-4,16443
1341320566,6470,24.2600002288818360,7.8193998336791990,34.9774017333984400,396.8183898925781000,564.9249267578125000,7.7786831855773930,29.9075508117675780,169,3,328,1231,65,2164590536,2170328278,2183047962,2160058170,2100,0,-5,52378
1341320629,6470,21.3600006103515620,8.1190004348754880,34.9725990295410160,399.5979919433594000,556.7990112304688000,8.0357818603515620,29.7028503417968750,107,3,246,839,63,2193443990,2209263094,2242571405,2181300369,1613,0,-4,5777
1341320690,6470,18.7199993133544920,8.5176000595092770,34.9718017578125000,401.2586059570312500,543.8543701171875000,8.4441909790039060,29.4568996429443360,127,3,227,815,59,2213409828,2232462559,2270914939,2193211231,1506,0,-4,16232
1341320753,6468,16.2299995422363280,8.7059001922607420,34.9786987304687500,403.1716918945312500,536.9686889648438000,8.6608848571777340,29.2995796203613280,113,3,159,787,60,2246751871,2272331744,2321972598,2214751596,1608,0,-4,2839
1341320814,6468,14.2600002288818360,8.7859001159667970,34.9799995422363300,404.7279968261719000,533.7780151367188000,8.7611656188964840,29.2087707519531250,110,3,150,768,64,2195153723,2200507049,2212509014,2173572013,2067,1,-4,14229
1341320915,6471,11.6999998092651370,9.4582996368408200,34.9668998718261700,398.0795898437500000,510.3515014648437500,9.4950590133667000,29.0394191741943360,98,3,110,748,57,2213356073,2218118340,2230091400,2182097818,2568,1,-6,49935
1341320976,6470,10.6000003814697270,10.1721000671386720,34.9790000915527340,388.7174987792969000,490.5317993164062500,10.1128396987915040,29.0082893371582030,86,3,112,656,60,2227935990,2233608173,2247661010,2190180383,2871,1,-4,63101
1341321082,6467,7.8400001525878910,10.6960000991821290,34.9892005920410160,375.9211120605469000,470.9995117187500000,10.7190599441528320,29.0909404754638670,84,3,83,632,57,2326680493,2342575154,2375360653,2256769242,3062,0,-6,16194
1341321134,6469,5.0999999046325680,11.1017999649047850,34.9888992309570300,367.7939147949219000,457.1654968261719000,11.1469802856445310,29.1316394805908200,86,3,72,608,50,2446453599,2477449087,2536668228,2359550921,3447,-8,-2,15785
1341321184,6467,3.6800000667572020,0.0000000000000000,0.0000000000000000,365.1040039062500000,452.1553955078125000,11.3016700744628900,29.1405200958251950,84,3,72,618,48,2474638025,2505935843,2560305713,2392733736,2750,0,3,44543
1341321229,6468,0.8700000047683716,0.0000000000000000,0.0000000000000000,361.1582946777344000,437.7279052734375000,11.7463302612304690,29.0552406311035160,148,3,70,559,49,2514702020,2524352913,2574775839,2460001394,3308,3,-2,37131
